Location: Putah Creek Observatory
(38.7021°N, 122.3865°W)
Time: 12:27:46
(UTC-07:00)

Meteor 2-4 Rocket - Pass Details

Date: 27 May 2018
Orbit: 800 x 908 km, 81.2° (Epoch: 16 October)

Event Time Altitude Azimuth Distance (km) Brightness Sun altitude
Rises 22:01:07 0° 200° (SSW) 3,316 6.5 -15.8°
Reaches altitude 10° 22:03:31 10° 204° (SSW) 2,400 5.9 -16.1°
Maximum altitude 22:08:50 55° 282° (WNW) 996 4.4 -16.8°
Drops below altitude 10° 22:14:20 10° 0° (N) 2,481 6.8 -17.5°
Sets 22:16:51 0° 5° (N) 3,439 7.5 -17.9°
